This is the latest recevied weather packets stored in our database for station/object K1ZK-13. If no packets are shown the sender has not sent any weather packets the latest 10 day(s).
| Time | Temp. | Humidity | Pressure | Rain* | Wind** | Luminosity | Snow |
|---|---|---|---|---|---|---|---|
| 1777467676 | 13.33° C | 56% | 1014.4 hPa | 0 mm | - | 186 W/m² | - |
| 1777467371 | 13.33° C | 56% | 1014.6 hPa | 0 mm | - | 186 W/m² | - |
| 1777467067 | 13.33° C | 57% | 1014.8 hPa | 0 mm | - | 178 W/m² | - |
| 1777466764 | 13.33° C | 57% | 1015.2 hPa | 0 mm | - | 159 W/m² | - |
| 1777466461 | 13.33° C | 57% | 1015 hPa | 0 mm | - | 141 W/m² | - |
| 1777466151 | 13.33° C | 57% | 1015.2 hPa | 0 mm | - | 164 W/m² | - |
| 1777465848 | 13.33° C | 57% | 1015.1 hPa | 0 mm | - | 193 W/m² | - |
| 1777465544 | 12.78° C | 58% | 1015.4 hPa | 0 mm | - | 145 W/m² | - |
| 1777465239 | 12.78° C | 56% | 1015.1 hPa | 0 mm | - | 122 W/m² | - |
| 1777464934 | 12.78° C | 56% | 1015.3 hPa | 0 mm | - | 127 W/m² | - |
| 1777464629 | 12.78° C | 56% | 1015.2 hPa | 0 mm | - | 120 W/m² | - |
| 1777464325 | 12.78° C | 55% | 1015.1 hPa | 0 mm | - | 110 W/m² | - |
| 1777464021 | 12.22° C | 56% | 1015.3 hPa | 0 mm | - | 78 W/m² | - |
| 1777463716 | 12.22° C | 54% | 1015.2 hPa | 0 mm | - | 63 W/m² | - |
| 1777463411 | 12.22° C | 56% | 1015.3 hPa | 0 mm | - | 35 W/m² | - |
| 1777463107 | 12.22° C | 56% | 1015.4 hPa | 0 mm | - | 35 W/m² | - |
| 1777462804 | 12.22° C | 55% | 1015.6 hPa | 0 mm | - | 36 W/m² | - |
| 1777462498 | 12.22° C | 53% | 1015.3 hPa | 0 mm | - | 37 W/m² | - |
| 1777462194 | 12.22° C | 54% | 1015.3 hPa | 0 mm | - | 24 W/m² | - |
| 1777461891 | 12.22° C | 54% | 1015.4 hPa | 0 mm | - | 20 W/m² | - |
| 1777461588 | 12.22° C | 54% | 1015.4 hPa | 0 mm | - | 30 W/m² | - |
| 1777461283 | 12.22° C | 53% | 1015.3 hPa | 0 mm | - | 35 W/m² | - |
| 1777460979 | 11.67° C | 54% | 1015.5 hPa | 0 mm | - | 28 W/m² | - |
| 1777460675 | 11.67° C | 53% | 1015.4 hPa | 0 mm | - | 27 W/m² | - |
| 1777458855 | 11.67° C | 52% | 1015.4 hPa | 0 mm | - | 5 W/m² | - |
* Rain latest hour (hover to see other rain measurements)
** Current wind speed in m/s (hover to see current wind gust speed)